User: anonymous   Login
Location: Beekmeers
(50.8953°N, 3.6968°E)
Time: 19:44:26
(UTC+00:00)
Language:

H-2A R/B - Orbit

View from above orbital plane
View from above orbital plane
View from above satellite
View from above satellite

Ground track
Ground track

The orbit data is extracted from the following two-line orbital elements,

1 38341U 12025E   24197.77447173  .00005014  00000-0  52863-3 0  9999
2 38341  98.4213 111.1148 0051779 114.6787 245.9832 14.88830172658440
Epoch (UTC): 15 July 2024 18:35:14
Eccentricity: 0.0051779
inclination: 98.4213°
perigee height: 565 km
apogee height: 638 km
right ascension of ascending node: 111.1148°
argument of perigee: 114.6787°
revolutions per day: 14.88830172
mean anomaly at epoch: 245.9832°
orbit number at epoch: 65844

The dashed part of the orbit path shows where the satellite is in the earth's shadow,  

DLR